SCP
0 0 0 0 0 0 0 0 0 0 0 0 0 0 0 0 0 0 0 0 0 0 0 0 0 0 0 0 0 0 0 0 0 0 0 0 0 0 0 0 0 0 0 0 0 0 0 0 -0 -0 0 0 0 0
0 0 0 0 0 0 0 0 0 0 0 0 0 0 0 0 0 0 0 0 0 0 0 0 0 0 0 0 0 0 0 0 0 0 0 0 0 0 0 0 0 0 0 0 0 0 0 0 0 0 0 0 0 0
0 0 0 0 0 0 0 0 0 0 0 0 0 0 0 0 0 0 0 0 0 0 0 0 0 0 0 0 0 0 0 0 0 0 0 0 0 0 0 0 0 0 0 0 0 0 0 0 0 0 0 0 0 0
0 0 0 0 0 0 0 0 0 0 0 0 0 0 0 0 0 0 0 0 0 0 0 0 -0 0 0 0 0 0 0 0 0 0 0 0 0 0 0 0 0 0 0 0 0 0 -0 0 0 0 0 0 0 0
0 0 0 0 0 0 0 0 0 0 0 0 0 0 0 0 0 0 0 0 0 0 0 0 0 0 0 0 0 0 0 0 0 0 0 0 0 0 0 0 0 0 0 0 0 0 -0 -0 0 0 -0 -0 -0 0
0 0 0 0 0 0 0 0 0 0 0 0 0 0 0 0 0 0 0 0 0 0 0 0 0 0 0 0 0 0 0 0 0 0 0 0 0 0 0 0 0 0 -0 0 0 0 0 0 0 -0 -0 -0 0 0
0 0 0 0 0 0 0 0 0 0 0 0 0 0 0 0 0 0 0 0 0 0 0 0 0 0 0 0 0 0 0 0 0 0 0 0 0 0 0 0 0 -0 0 0 0 0 -0 0 -0 -0 -0 -0 0 0
0 0 0 0 0 0 0 0 0 0 0 0 0 0 0 0 0 0 0 0 0 0 0 0 0 0 0 0 0 0 0 0 0 0 0 0 0 0 0 0 0 0 0 0 0 0 0 -0 -0 -0 -0 0 0 0
0 0 0 0 0 0 0 0 0 0 0 0 0 0 0 0 0 0 0 0 0 0 0 0 0 0 0 0 0 0 0 0 0 0 0 0 0 0 0 0 -0 0 0 0 0 0 0 -0 -0 -0 -0 0 0 -0
0 0 0 0 0 0 0 0 0 0 0 0 0 0 0 0 0 0 0 0 0 0 0 0 0 0 0 0 0 0 0 0 0 0 0 0 0 0 0 0 -0 0 0 0 -0 -0 -0 -0 -0 -0 -0 0 0 0
0 0 0 0 0 0 0 0 0 0 0 0 0 0 0 0 0 0 0 0 0 0 0 0 0 0 0 0 0 0 0 0 0 0 0 -0 -0 0 0 -0 0 0 0 0 0 0 0 -0 -0 -0 0 0 0 0
0 0 0 0 0 0 0 0 0 0 0 0 0 0 0 0 0 0 0 0 0 0 0 0 0 0 0 0 0 0 0 0 -0 0 -0 -0 0 -0 0 -0 0 0 0 0 0 0 0 -0 -0 -0 0 0 0 0
0 0 0 0 0 0 0 0 0 0 0 0 0 0 0 0 0 0 0 0 0 0 0 0 0 0 0 0 0 0 0 -0 -0 0 0 -0 0 -0 -0 0 0 0 0 0 0 0 -0 -0 -0 -0 0 0 0 0
0 0 0 0 0 0 0 0 0 0 0 0 0 0 0 0 0 0 0 0 0 0 0 0 0 0 0 0 0 0 0 0 0 0 -0 0 -0 -0 -0 0 0 0 0 0 0 0 -0 -0 -0 -0 0 0 0 0
0 0 0 0 0 0 0 0 0 0 0 0 0 0 0 0 0 0 0 0 0 0 -0 0 0 0 0 0 0 0 0 0 0 -0 -0 0 -0 -0 -0 0 0 0 0 -0 -0 -0 -0 -0 -0 -0 0 -0 0 0
0 0 0 0 0 0 0 0 0 0 0 0 0 0 0 0 0 0 0 0 0 0 0 0 0 0 0 0 0 0 0 0 -0 -0 -0 0 -0 -0 -0 0 0 0 0 -0 -0 -0 -0 -0 -0 -0 0 -0 0 0
0 0 0 0 0 0 0 0 0 0 0 0 0 0 0 0 0 0 0 0 0 0 0 0 0 0 0 0 0 0 0 0 -0 -0 -0 -0 -0 -0 -0 0 0 0 0 0 -0 -0 -0 -0 -0 -0 0 -0 0 0
0 0 0 0 0 0 0 0 0 0 0 0 0 0 0 0 0 0 0 0 0 0 0 0 0 0 0 0 0 0 0 0 -0 -0 -0 -0 -0 -0 -0 0 0 0 0 0 0 -0 0 0 -0 -0 -0 0 -0 0
0 0 0 0 0 0 0 0 0 0 0 0 0 0 0 0 0 0 0 0 0 0 0 0 0 0 0 0 0 0 0 0 0 0 -0 0 -0 -0 -0 -0 -0 -0 0 0 0 0 0 -0 -0 -0 -0 0 -0 -0
0 0 0 0 0 0 0 0 0 0 0 0 0 0 0 0 0 0 0 -0 0 0 0 0 0 0 0 0 0 0 0 0 0 0 0 -0 -0 -0 -0 -0 -0 0 0 0 0 -0 0 -0 -0 -0 -0 -0 -0 -0
0 0 0 0 0 0 0 0 0 0 0 0 0 0 0 0 0 0 0 0 -0 -0 -0 -0 -0 -0 0 0 0 0 0 0 0 0 0 -0 -0 -0 -0 0 -0 -0 0 0 0 -0 -0 -0 -0 -0 -0 -0 -0 0
0 0 0 0 0 0 0 0 0 0 0 0 0 0 0 0 0 0 0 0 0 0 0 0 0 0 0 0 0 0 0 -0 0 0 0 -0 -0 -0 0 0 0 0 0 0 0 0 -0 -0 -0 -0 -0 -0 -0 0
0 0 0 0 0 0 0 0 0 0 0 0 0 0 0 -0 -0 0 0 0 -0 -0 0 0 0 -0 -0 -0 -0 0 0 0 0 -0 -0 -0 0 0 0 0 0 0 0 0 0 0 0 0 0 0 0 -0 -0 -0
0 0 0 0 0 0 0 0 0 0 0 0 0 -0 -0 -0 -0 -0 -0 -0 -0 0 0 0 0 0 0 0 -0 -0 -0 -0 0 0 0 0 0 0 0 0 0 0 0 0 0 0 0 0 0 0 0 0 -0 -0
0 0 0 0 0 0 0 0 0 0 0 -0 -0 -0 -0 -0 -0 -0 0 0 0 0 0 0 0 0 0 0 0 0 0 0 0 0 0 0 0 0 0 0 0 0 0 0 0 0 0 0 0 0 0 0 0 0
-0 -0 0 0 0 0 0 -0 -0 0 0 -0 -0 -0 -0 -0 0 0 0 -0 -0 -0 -0 -0 0 0 0 0 0 -0 -0 -0 -0 0 0 0 0 0 0 0 0 0 0 0 0 0 0 0 0 0 0 0 0 0
-0 -0 -0 0 0 0 0 0 0 0 -0 0 0 0 0 0 -0 0 0 0 -0 -0 -0 -0 0 0 -0 -0 -0 -0 0 0 -0 0 0 0 0 0 0 0 0 0 0 -0 0 0 0 0 0 0 0 0 0 0
-0 0 -0 0 0 0 0 0 0 0 0 0 -0 -0 0 0 0 -0 -0 -0 -0 -0 -0 -0 -0 -0 -0 -0 0 0 0 0 0 0 0 0 0 0 0 0 0 0 0 0 0 0 0 -0 0 0 0 0 0 0
0 0 0 -0 -0 0 0 0 0 0 0 0 0 0 0 0 0 -0 -0 0 0 0 0 0 0 0 0 0 0 0 0 0 0 0 0 0 0 0 -0 -0 -0 -0 -0 0 0 -0 -0 -0 0 0 0 0 0 0
0 0 0 0 0 0 0 0 0 0 0 0 0 0 0 0 0 0 0 0 0 0 0 0 0 0 0 0 0 0 0 0 0 0 0 0 0 0 0 -0 -0 -0 0 -0 -0 -0 -0 0 0 0 0 0 0 0
0 0 0 0 0 0 0 0 0 0 0 0 0 0 0 0 0 0 0 0 0 0 0 0 0 0 0 0 0 0 0 0 0 0 0 0 0 0 0 -0 0 0 -0 -0 -0 -0 0 0 0 0 0 0 0 0
0 0 0 0 0 0 0 0 0 0 0 0 0 0 0 0 0 0 0 0 0 0 0 0 0 0 0 0 0 0 0 0 0 0 -0 0 0 0 0 0 -0 0 -0 -0 -0 -0 0 0 0 0 0 0 0 0
0 0 0 0 0 0 0 0 0 0 0 0 0 0 0 0 0 0 0 0 0 0 0 0 0 0 0 0 0 0 0 0 0 0 -0 -0 0 -0 -0 0 0 0 -0 -0 -0 -0 -0 -0 -0 0 0 0 0 0
Wind_Speed_500mb
46 45 44 47 52 54 53 46 42 39 40 39 39 37 36 37 37 34 12 11 16 20 61 19 22 51 56 38 11 34 25 15 9 10 7 8 7 9 10 14 18 10 7 6 5 7 13 46 41 8 12 34 41 47
51 47 55 46 54 51 45 40 38 38 39 38 38 37 37 36 36 36 35 20 24 28 52 66 49 44 55 58 48 17 19 32 7 4 7 6 8 11 12 8 12 9 6 11 9 10 38 57 10 28 23 36 45 56
56 45 45 45 43 37 38 35 38 37 37 38 37 37 37 39 37 37 41 35 26 35 50 35 33 29 8 13 24 34 27 33 14 8 4 4 8 7 6 9 22 16 38 11 28 5 38 47 43 42 42 50 60 70
44 47 49 44 40 37 36 36 35 36 36 37 37 37 38 39 40 39 40 35 18 18 13 18 17 36 45 54 45 54 63 44 42 25 8 5 6 8 6 17 27 34 33 17 17 35 46 23 36 40 54 62 75 72
52 51 46 35 34 37 36 35 36 35 34 35 35 37 39 39 40 40 34 10 7 18 12 36 78 27 12 30 25 23 37 39 30 11 7 7 9 7 12 15 11 18 9 8 22 49 25 34 43 57 63 68 72 67
45 37 34 36 40 36 34 35 35 33 32 33 35 36 37 37 38 36 5 5 13 17 16 8 31 45 20 11 20 28 42 41 32 12 9 10 19 8 6 10 13 28 52 60 30 44 38 39 54 63 60 71 65 64
43 38 39 37 37 37 34 31 30 31 31 32 33 35 35 35 36 20 13 6 8 17 11 15 16 15 29 21 27 36 43 18 29 12 11 11 13 16 8 12 17 48 53 46 27 50 48 39 54 57 68 63 63 60
39 40 37 36 35 33 30 28 28 29 29 30 32 36 35 35 38 30 7 12 10 23 10 8 11 16 28 26 18 27 31 28 19 14 9 9 14 20 9 10 30 35 47 19 35 34 36 50 49 62 60 61 67 60
40 43 38 33 30 28 25 24 24 24 25 27 30 29 26 8 2 5 13 20 16 15 8 13 6 9 21 33 41 27 16 4 12 10 10 9 7 7 10 30 41 50 24 26 32 34 38 39 53 57 61 62 60 64
44 37 30 28 26 24 21 20 20 19 16 14 20 3 5 5 12 25 12 7 13 14 16 12 20 17 31 44 11 17 12 6 6 12 13 2 3 13 25 27 41 42 20 27 37 36 34 41 48 56 57 57 54 56
31 28 27 26 23 19 18 16 14 11 2 11 7 7 11 11 11 8 11 11 15 9 14 16 29 20 26 6 6 5 6 7 7 2 2 2 5 7 31 36 38 11 19 26 26 27 35 40 44 53 52 53 49 50
28 26 25 23 21 18 16 13 11 7 11 11 20 29 18 6 12 8 6 9 11 8 16 16 27 27 18 12 7 7 5 6 11 6 3 2 4 30 35 38 43 17 22 31 31 32 35 37 43 51 45 49 44 46
26 25 24 22 20 17 16 13 8 8 7 1 4 5 7 7 3 10 10 9 7 11 6 11 15 15 12 3 3 3 7 11 11 4 1 3 11 33 34 36 38 26 33 34 35 28 34 38 41 55 47 42 40 43
25 23 22 21 19 17 15 11 7 4 2 6 8 7 10 11 12 12 15 15 17 23 27 20 21 9 8 7 10 9 11 7 2 2 0 5 23 32 32 34 22 25 29 36 31 30 34 37 40 47 45 39 41 40
23 21 20 19 16 15 16 14 9 3 3 8 10 9 14 27 36 33 26 16 30 19 46 15 18 13 8 8 6 8 7 2 6 2 6 12 25 35 38 35 17 22 30 33 27 32 33 33 36 36 53 40 41 40
24 24 25 23 24 23 19 17 13 11 8 11 16 16 29 23 24 32 23 22 30 37 22 21 8 6 9 7 8 4 11 9 5 6 23 18 27 35 35 33 11 21 29 36 28 27 30 31 32 31 38 41 36 40
20 12 13 12 17 20 20 20 13 14 12 12 16 31 38 35 32 36 37 30 27 18 7 12 9 7 6 7 10 3 6 8 13 13 5 15 22 33 32 32 21 22 26 31 37 30 28 27 28 40 26 48 33 35
19 15 13 15 19 21 24 26 9 13 17 24 29 35 40 42 42 41 37 35 32 20 20 8 19 8 6 10 13 15 30 34 29 26 17 11 17 29 28 27 20 26 19 22 26 29 28 30 28 35 33 27 33 36
21 19 22 20 26 18 10 19 20 11 21 28 36 41 44 43 43 44 41 39 38 28 22 15 10 5 6 10 13 31 33 38 42 33 17 19 17 24 22 24 22 22 25 18 20 22 26 28 27 33 32 32 37 34
24 13 22 30 32 12 9 11 17 13 12 20 36 37 35 35 39 34 33 33 33 30 16 11 19 32 34 43 27 21 39 35 38 40 21 16 17 18 24 25 23 24 26 13 14 12 27 31 19 23 29 29 37 42
21 17 13 18 28 21 10 11 14 17 19 27 37 33 26 32 34 35 36 42 36 39 29 42 51 52 51 49 46 37 38 37 40 43 37 20 24 33 32 22 18 13 20 17 10 16 26 40 35 19 24 29 24 32
14 19 16 16 15 10 15 20 16 13 19 30 41 41 31 25 34 36 36 36 38 43 49 54 57 56 54 57 63 56 46 40 34 37 41 33 28 27 32 19 10 10 11 16 20 16 24 28 27 39 29 27 29 24
16 14 9 14 13 11 15 16 16 17 10 9 21 21 15 26 29 36 20 24 44 53 56 59 58 57 61 53 47 44 40 46 45 36 38 30 30 28 25 25 15 9 13 14 16 21 23 16 11 19 29 35 30 29
11 9 7 10 20 10 12 18 15 12 16 25 20 28 30 41 49 39 24 40 51 48 48 49 58 58 46 45 39 36 36 37 44 40 34 36 35 33 31 29 15 14 18 10 10 13 14 17 11 6 12 18 26 31
6 11 10 15 13 12 10 10 31 16 21 24 32 26 15 25 21 25 28 42 49 15 12 9 5 8 7 8 18 15 10 14 22 34 26 27 30 33 32 27 24 21 17 9 17 10 12 7 13 10 12 9 9 13
11 18 20 17 13 12 11 9 11 23 18 23 11 11 16 14 24 15 14 11 7 1 2 7 13 13 11 14 20 25 35 28 23 27 31 30 30 33 29 22 21 12 23 20 21 19 15 11 5 8 8 6 8 8
11 14 25 27 23 25 16 20 31 16 19 20 16 19 9 8 11 4 12 13 8 7 4 17 39 62 68 58 43 33 33 28 31 28 33 30 28 28 28 16 22 17 18 19 33 19 15 12 11 7 5 5 4 5
20 14 21 32 27 20 9 10 11 10 9 7 6 6 5 5 4 9 4 25 46 57 72 74 64 57 57 51 51 44 30 27 33 32 34 31 33 27 30 17 14 15 8 11 27 21 17 14 12 9 7 5 2 4
16 20 27 33 32 14 13 13 11 14 13 5 5 5 8 12 33 59 74 71 53 53 49 40 32 32 34 25 24 27 17 11 22 36 31 25 28 26 22 33 26 26 16 14 14 11 23 15 10 9 4 6 6 4
34 32 14 9 7 8 12 16 20 22 22 25 22 30 44 58 74 52 47 43 37 28 10 8 14 13 21 26 22 18 6 13 30 32 29 24 22 20 24 45 34 22 28 13 12 17 16 12 10 11 11 15 7 4
10 5 6 8 10 21 29 35 41 43 38 31 37 42 44 35 21 45 55 49 36 18 16 15 13 10 10 14 16 31 23 18 15 19 27 33 30 19 29 27 26 21 30 22 16 9 15 14 15 12 10 9 6 5
12 17 9 7 9 15 12 7 11 10 8 6 4 2 4 8 21 50 56 55 55 40 24 24 20 15 8 24 25 29 18 27 19 12 3 36 26 23 22 13 35 32 17 17 12 12 19 9 8 12 13 11 5 5
13 23 21 8 7 7 12 8 6 7 2 11 20 27 22 14 14 43 51 54 49 42 31 41 44 36 36 41 43 40 33 32 32 30 31 48 30 8 14 25 23 25 17 13 16 14 13 12 12 13 13 9 13 13
Wind_Direction_500mb
275 280 277 283 288 287 286 291 294 303 312 318 324 329 335 337 337 340 22 40 310 289 291 276 297 304 295 288 275 304 338 9 332 0 336 350 324 348 334 327 296 302 283 291 328 273 280 352 351 346 274 302 314 310
273 274 281 281 283 284 278 280 290 299 306 311 317 324 330 332 331 329 325 310 261 263 266 289 295 302 286 277 257 254 261 319 294 322 332 325 316 294 330 298 291 305 325 287 265 253 301 315 91 340 325 326 322 312
276 266 273 277 273 270 272 278 289 296 302 306 314 319 324 325 325 321 319 326 325 299 299 277 280 292 322 333 280 239 253 265 290 322 351 303 276 13 301 272 299 298 304 287 316 321 307 314 338 344 335 325 323 322
278 276 271 264 263 265 272 280 284 292 298 305 312 317 319 319 317 315 315 315 282 283 284 285 253 282 275 287 263 251 253 269 282 250 201 229 240 224 255 275 286 285 295 303 286 276 309 334 344 337 329 328 329 326
267 271 258 255 261 271 274 278 283 289 295 302 308 313 315 317 317 318 317 297 84 264 284 298 304 325 270 282 268 269 249 263 261 196 193 223 229 254 257 268 254 251 302 293 310 302 303 334 342 340 332 330 327 324
255 249 254 260 270 271 272 275 279 285 293 299 306 311 313 313 314 332 301 221 220 253 300 301 293 305 324 267 257 261 247 250 247 202 210 236 237 245 257 266 259 294 305 302 296 314 335 334 336 337 327 328 330 327
233 246 252 256 266 270 267 268 276 284 291 300 305 305 305 304 300 290 259 250 262 280 299 293 285 270 308 270 272 276 259 233 224 217 221 236 248 214 258 260 304 311 303 316 353 342 343 345 334 330 330 335 338 338
249 249 255 260 260 258 259 266 274 284 297 303 302 300 299 295 297 293 307 310 237 261 250 270 271 281 308 323 352 323 319 280 208 212 218 214 249 223 247 304 306 290 316 331 344 344 331 330 328 332 341 345 343 337
247 253 257 250 246 247 253 263 276 292 304 304 300 301 296 300 342 256 273 281 283 202 256 235 271 298 327 338 329 317 293 290 200 208 215 206 217 235 330 313 314 304 318 345 342 342 338 340 335 342 345 350 342 344
246 246 236 230 232 239 249 264 284 300 310 305 310 359 216 218 284 291 287 190 211 220 229 261 273 287 285 289 307 332 286 303 269 216 181 150 306 270 321 315 303 318 4 348 360 355 354 346 345 343 346 349 349 351
228 223 214 217 223 232 246 264 282 313 199 354 305 262 270 303 320 242 219 209 201 235 225 242 239 252 304 294 301 300 336 289 284 187 42 358 280 277 324 307 318 2 6 8 2 357 349 347 352 344 351 354 359 1
212 208 208 211 218 227 239 251 265 225 264 276 290 296 313 263 230 274 247 225 212 240 196 233 262 261 265 241 264 30 291 313 260 57 151 254 261 336 332 319 320 56 11 19 7 1 357 3 1 359 359 1 11 10
200 201 206 213 218 221 229 242 250 287 313 157 282 266 246 246 259 219 220 215 230 218 190 261 286 280 217 108 124 229 248 240 271 60 225 242 324 334 320 328 342 44 16 11 3 8 2 7 5 10 11 13 22 25
200 204 209 213 215 216 219 209 206 289 135 243 229 245 228 207 225 206 243 299 325 255 246 240 246 273 307 194 206 225 225 248 340 75 231 35 343 336 333 345 9 32 10 4 15 7 6 10 15 8 21 23 31 29
196 201 206 210 205 202 201 196 201 204 242 245 238 240 231 240 281 304 296 271 297 298 282 235 279 263 262 252 249 252 258 4 41 37 289 16 353 346 343 357 31 23 10 12 16 13 14 12 13 10 21 28 41 46
207 216 225 222 216 211 208 207 216 215 241 232 235 260 278 306 296 304 334 324 327 333 332 290 242 233 242 221 225 337 358 6 344 228 302 353 340 344 347 357 29 15 11 21 20 17 20 16 24 22 13 33 46 52
191 169 201 195 194 194 196 193 222 222 232 229 237 244 258 280 295 302 315 324 311 344 2 353 277 226 293 261 239 88 142 230 267 4 345 317 343 345 350 2 9 11 4 15 27 35 31 27 29 32 25 33 50 58
167 207 185 171 180 183 196 201 243 237 237 240 257 264 273 278 284 289 293 301 306 308 281 255 283 269 258 294 305 324 350 6 13 354 351 330 351 349 352 4 8 355 0 8 23 31 38 43 38 40 39 21 54 59
187 206 195 182 177 198 216 207 212 258 241 251 263 270 273 275 276 277 277 279 280 279 272 278 249 242 248 271 13 333 329 331 330 331 357 334 339 351 1 6 337 349 354 328 10 30 42 48 52 42 50 46 50 66
185 189 218 202 190 203 239 240 211 244 259 267 276 278 272 270 275 271 273 272 269 272 245 232 253 260 270 281 282 279 287 296 308 322 328 336 331 343 345 347 338 338 352 316 29 65 31 38 60 58 55 55 44 55
195 206 177 187 204 220 258 265 238 245 266 276 275 279 282 279 269 263 254 261 258 248 245 256 266 265 258 261 269 268 267 281 284 290 297 289 302 314 320 323 326 333 358 3 199 107 42 48 47 71 65 64 51 49
192 191 196 199 213 232 251 236 238 256 276 273 284 275 273 271 273 270 271 257 252 253 244 247 249 253 256 253 251 255 255 257 262 274 290 284 298 298 299 308 301 320 343 348 128 94 55 47 51 61 79 77 76 63
183 185 201 198 219 238 253 229 242 235 240 256 281 301 272 272 279 286 265 252 262 265 260 255 255 256 257 257 258 252 250 250 250 260 273 290 286 284 274 282 278 271 300 340 138 65 64 53 50 43 55 66 70 76
187 197 223 219 210 253 244 225 228 237 261 258 260 261 266 268 275 269 268 272 272 273 267 257 245 242 242 238 238 244 242 247 248 252 257 256 268 269 265 262 248 250 269 287 135 69 65 73 59 54 82 63 63 74
207 227 203 235 233 228 251 247 230 232 239 251 261 264 264 269 274 275 271 264 273 295 281 298 281 179 121 190 196 233 241 243 260 235 250 243 250 257 269 261 219 225 231 256 175 142 128 114 77 91 149 142 112 77
223 209 200 213 218 222 219 257 258 255 261 270 239 246 265 260 256 268 272 287 217 159 9 27 0 340 290 267 261 261 258 260 260 270 257 228 237 238 247 241 252 239 202 192 207 177 170 164 138 107 108 97 130 164
233 240 212 224 247 256 261 258 266 279 284 288 284 289 299 243 250 231 89 64 72 344 274 313 303 302 295 285 270 259 269 222 239 259 243 228 224 235 247 227 239 236 222 222 211 199 197 183 180 171 145 97 75 25
234 255 250 255 241 248 259 247 233 243 253 260 356 301 277 262 311 349 325 288 305 298 290 290 287 279 273 266 259 264 225 224 257 239 229 230 242 232 222 207 203 195 223 222 188 203 184 169 162 166 156 138 76 54
233 234 251 263 270 248 230 228 234 224 229 206 210 240 252 261 279 289 293 298 298 300 294 288 273 258 257 239 211 197 224 265 226 202 222 222 203 219 227 201 190 165 172 181 188 136 156 157 166 158 111 101 162 145
253 250 258 241 236 252 246 240 270 272 266 254 254 261 269 279 297 312 311 332 336 334 346 89 112 144 161 171 180 179 175 233 205 201 211 225 214 156 178 186 179 172 187 187 159 180 187 185 164 136 132 135 124 112
257 219 258 252 264 266 271 276 280 284 280 265 255 248 262 284 321 19 19 39 56 60 62 64 101 152 194 202 190 155 137 137 168 203 208 214 201 176 179 212 205 217 193 183 166 177 173 169 191 189 175 151 149 103
206 200 209 228 260 292 303 287 301 308 310 308 322 147 41 2 8 26 43 55 65 75 70 76 84 87 131 150 154 147 117 131 140 106 165 195 183 122 137 101 137 152 139 121 119 127 157 118 148 166 157 150 110 107
203 202 206 252 261 243 231 213 260 264 266 59 51 39 43 33 19 10 32 50 55 57 63 73 82 86 103 110 111 120 121 120 119 118 106 130 140 162 140 114 128 128 122 135 151 142 145 143 145 148 161 169 174 187
Wind_Speed_850mb
46 45 44 47 52 54 53 46 42 39 40 39 39 37 36 37 37 34 12 11 16 20 61 19 22 51 56 38 11 34 25 15 9 10 7 8 7 9 10 14 18 10 7 6 5 7 13 46 41 8 12 34 41 47
51 47 55 46 54 51 45 40 38 38 39 38 38 37 37 36 36 36 35 20 24 28 52 66 49 44 55 58 48 17 19 32 7 4 7 6 8 11 12 8 12 9 6 11 9 10 38 57 10 28 23 36 45 56
56 45 45 45 43 37 38 35 38 37 37 38 37 37 37 39 37 37 41 35 26 35 50 35 33 29 8 13 24 34 27 33 14 8 4 4 8 7 6 9 22 16 38 11 28 5 38 47 43 42 42 50 60 70
44 47 49 44 40 37 36 36 35 36 36 37 37 37 38 39 40 39 40 35 18 18 13 18 17 36 45 54 45 54 63 44 42 25 8 5 6 8 6 17 27 34 33 17 17 35 46 23 36 40 54 62 75 72
52 51 46 35 34 37 36 35 36 35 34 35 35 37 39 39 40 40 34 10 7 18 12 36 78 27 12 30 25 23 37 39 30 11 7 7 9 7 12 15 11 18 9 8 22 49 25 34 43 57 63 68 72 67
45 37 34 36 40 36 34 35 35 33 32 33 35 36 37 37 38 36 5 5 13 17 16 8 31 45 20 11 20 28 42 41 32 12 9 10 19 8 6 10 13 28 52 60 30 44 38 39 54 63 60 71 65 64
43 38 39 37 37 37 34 31 30 31 31 32 33 35 35 35 36 20 13 6 8 17 11 15 16 15 29 21 27 36 43 18 29 12 11 11 13 16 8 12 17 48 53 46 27 50 48 39 54 57 68 63 63 60
39 40 37 36 35 33 30 28 28 29 29 30 32 36 35 35 38 30 7 12 10 23 10 8 11 16 28 26 18 27 31 28 19 14 9 9 14 20 9 10 30 35 47 19 35 34 36 50 49 62 60 61 67 60
40 43 38 33 30 28 25 24 24 24 25 27 30 29 26 8 2 5 13 20 16 15 8 13 6 9 21 33 41 27 16 4 12 10 10 9 7 7 10 30 41 50 24 26 32 34 38 39 53 57 61 62 60 64
44 37 30 28 26 24 21 20 20 19 16 14 20 3 5 5 12 25 12 7 13 14 16 12 20 17 31 44 11 17 12 6 6 12 13 2 3 13 25 27 41 42 20 27 37 36 34 41 48 56 57 57 54 56
31 28 27 26 23 19 18 16 14 11 2 11 7 7 11 11 11 8 11 11 15 9 14 16 29 20 26 6 6 5 6 7 7 2 2 2 5 7 31 36 38 11 19 26 26 27 35 40 44 53 52 53 49 50
28 26 25 23 21 18 16 13 11 7 11 11 20 29 18 6 12 8 6 9 11 8 16 16 27 27 18 12 7 7 5 6 11 6 3 2 4 30 35 38 43 17 22 31 31 32 35 37 43 51 45 49 44 46
26 25 24 22 20 17 16 13 8 8 7 1 4 5 7 7 3 10 10 9 7 11 6 11 15 15 12 3 3 3 7 11 11 4 1 3 11 33 34 36 38 26 33 34 35 28 34 38 41 55 47 42 40 43
25 23 22 21 19 17 15 11 7 4 2 6 8 7 10 11 12 12 15 15 17 23 27 20 21 9 8 7 10 9 11 7 2 2 0 5 23 32 32 34 22 25 29 36 31 30 34 37 40 47 45 39 41 40
23 21 20 19 16 15 16 14 9 3 3 8 10 9 14 27 36 33 26 16 30 19 46 15 18 13 8 8 6 8 7 2 6 2 6 12 25 35 38 35 17 22 30 33 27 32 33 33 36 36 53 40 41 40
24 24 25 23 24 23 19 17 13 11 8 11 16 16 29 23 24 32 23 22 30 37 22 21 8 6 9 7 8 4 11 9 5 6 23 18 27 35 35 33 11 21 29 36 28 27 30 31 32 31 38 41 36 40
20 12 13 12 17 20 20 20 13 14 12 12 16 31 38 35 32 36 37 30 27 18 7 12 9 7 6 7 10 3 6 8 13 13 5 15 22 33 32 32 21 22 26 31 37 30 28 27 28 40 26 48 33 35
19 15 13 15 19 21 24 26 9 13 17 24 29 35 40 42 42 41 37 35 32 20 20 8 19 8 6 10 13 15 30 34 29 26 17 11 17 29 28 27 20 26 19 22 26 29 28 30 28 35 33 27 33 36
21 19 22 20 26 18 10 19 20 11 21 28 36 41 44 43 43 44 41 39 38 28 22 15 10 5 6 10 13 31 33 38 42 33 17 19 17 24 22 24 22 22 25 18 20 22 26 28 27 33 32 32 37 34
24 13 22 30 32 12 9 11 17 13 12 20 36 37 35 35 39 34 33 33 33 30 16 11 19 32 34 43 27 21 39 35 38 40 21 16 17 18 24 25 23 24 26 13 14 12 27 31 19 23 29 29 37 42
21 17 13 18 28 21 10 11 14 17 19 27 37 33 26 32 34 35 36 42 36 39 29 42 51 52 51 49 46 37 38 37 40 43 37 20 24 33 32 22 18 13 20 17 10 16 26 40 35 19 24 29 24 32
14 19 16 16 15 10 15 20 16 13 19 30 41 41 31 25 34 36 36 36 38 43 49 54 57 56 54 57 63 56 46 40 34 37 41 33 28 27 32 19 10 10 11 16 20 16 24 28 27 39 29 27 29 24
16 14 9 14 13 11 15 16 16 17 10 9 21 21 15 26 29 36 20 24 44 53 56 59 58 57 61 53 47 44 40 46 45 36 38 30 30 28 25 25 15 9 13 14 16 21 23 16 11 19 29 35 30 29
11 9 7 10 20 10 12 18 15 12 16 25 20 28 30 41 49 39 24 40 51 48 48 49 58 58 46 45 39 36 36 37 44 40 34 36 35 33 31 29 15 14 18 10 10 13 14 17 11 6 12 18 26 31
6 11 10 15 13 12 10 10 31 16 21 24 32 26 15 25 21 25 28 42 49 15 12 9 5 8 7 8 18 15 10 14 22 34 26 27 30 33 32 27 24 21 17 9 17 10 12 7 13 10 12 9 9 13
11 18 20 17 13 12 11 9 11 23 18 23 11 11 16 14 24 15 14 11 7 1 2 7 13 13 11 14 20 25 35 28 23 27 31 30 30 33 29 22 21 12 23 20 21 19 15 11 5 8 8 6 8 8
11 14 25 27 23 25 16 20 31 16 19 20 16 19 9 8 11 4 12 13 8 7 4 17 39 62 68 58 43 33 33 28 31 28 33 30 28 28 28 16 22 17 18 19 33 19 15 12 11 7 5 5 4 5
20 14 21 32 27 20 9 10 11 10 9 7 6 6 5 5 4 9 4 25 46 57 72 74 64 57 57 51 51 44 30 27 33 32 34 31 33 27 30 17 14 15 8 11 27 21 17 14 12 9 7 5 2 4
16 20 27 33 32 14 13 13 11 14 13 5 5 5 8 12 33 59 74 71 53 53 49 40 32 32 34 25 24 27 17 11 22 36 31 25 28 26 22 33 26 26 16 14 14 11 23 15 10 9 4 6 6 4
34 32 14 9 7 8 12 16 20 22 22 25 22 30 44 58 74 52 47 43 37 28 10 8 14 13 21 26 22 18 6 13 30 32 29 24 22 20 24 45 34 22 28 13 12 17 16 12 10 11 11 15 7 4
10 5 6 8 10 21 29 35 41 43 38 31 37 42 44 35 21 45 55 49 36 18 16 15 13 10 10 14 16 31 23 18 15 19 27 33 30 19 29 27 26 21 30 22 16 9 15 14 15 12 10 9 6 5
12 17 9 7 9 15 12 7 11 10 8 6 4 2 4 8 21 50 56 55 55 40 24 24 20 15 8 24 25 29 18 27 19 12 3 36 26 23 22 13 35 32 17 17 12 12 19 9 8 12 13 11 5 5
13 23 21 8 7 7 12 8 6 7 2 11 20 27 22 14 14 43 51 54 49 42 31 41 44 36 36 41 43 40 33 32 32 30 31 48 30 8 14 25 23 25 17 13 16 14 13 12 12 13 13 9 13 13
Wind_Direction_850mb
275 280 277 283 288 287 286 291 294 303 312 318 324 329 335 337 337 340 22 40 310 289 291 276 297 304 295 288 275 304 338 9 332 0 336 350 324 348 334 327 296 302 283 291 328 273 280 352 351 346 274 302 314 310
273 274 281 281 283 284 278 280 290 299 306 311 317 324 330 332 331 329 325 310 261 263 266 289 295 302 286 277 257 254 261 319 294 322 332 325 316 294 330 298 291 305 325 287 265 253 301 315 91 340 325 326 322 312
276 266 273 277 273 270 272 278 289 296 302 306 314 319 324 325 325 321 319 326 325 299 299 277 280 292 322 333 280 239 253 265 290 322 351 303 276 13 301 272 299 298 304 287 316 321 307 314 338 344 335 325 323 322
278 276 271 264 263 265 272 280 284 292 298 305 312 317 319 319 317 315 315 315 282 283 284 285 253 282 275 287 263 251 253 269 282 250 201 229 240 224 255 275 286 285 295 303 286 276 309 334 344 337 329 328 329 326
267 271 258 255 261 271 274 278 283 289 295 302 308 313 315 317 317 318 317 297 84 264 284 298 304 325 270 282 268 269 249 263 261 196 193 223 229 254 257 268 254 251 302 293 310 302 303 334 342 340 332 330 327 324
255 249 254 260 270 271 272 275 279 285 293 299 306 311 313 313 314 332 301 221 220 253 300 301 293 305 324 267 257 261 247 250 247 202 210 236 237 245 257 266 259 294 305 302 296 314 335 334 336 337 327 328 330 327
233 246 252 256 266 270 267 268 276 284 291 300 305 305 305 304 300 290 259 250 262 280 299 293 285 270 308 270 272 276 259 233 224 217 221 236 248 214 258 260 304 311 303 316 353 342 343 345 334 330 330 335 338 338
249 249 255 260 260 258 259 266 274 284 297 303 302 300 299 295 297 293 307 310 237 261 250 270 271 281 308 323 352 323 319 280 208 212 218 214 249 223 247 304 306 290 316 331 344 344 331 330 328 332 341 345 343 337
247 253 257 250 246 247 253 263 276 292 304 304 300 301 296 300 342 256 273 281 283 202 256 235 271 298 327 338 329 317 293 290 200 208 215 206 217 235 330 313 314 304 318 345 342 342 338 340 335 342 345 350 342 344
246 246 236 230 232 239 249 264 284 300 310 305 310 359 216 218 284 291 287 190 211 220 229 261 273 287 285 289 307 332 286 303 269 216 181 150 306 270 321 315 303 318 4 348 360 355 354 346 345 343 346 349 349 351
228 223 214 217 223 232 246 264 282 313 199 354 305 262 270 303 320 242 219 209 201 235 225 242 239 252 304 294 301 300 336 289 284 187 42 358 280 277 324 307 318 2 6 8 2 357 349 347 352 344 351 354 359 1
212 208 208 211 218 227 239 251 265 225 264 276 290 296 313 263 230 274 247 225 212 240 196 233 262 261 265 241 264 30 291 313 260 57 151 254 261 336 332 319 320 56 11 19 7 1 357 3 1 359 359 1 11 10
200 201 206 213 218 221 229 242 250 287 313 157 282 266 246 246 259 219 220 215 230 218 190 261 286 280 217 108 124 229 248 240 271 60 225 242 324 334 320 328 342 44 16 11 3 8 2 7 5 10 11 13 22 25
200 204 209 213 215 216 219 209 206 289 135 243 229 245 228 207 225 206 243 299 325 255 246 240 246 273 307 194 206 225 225 248 340 75 231 35 343 336 333 345 9 32 10 4 15 7 6 10 15 8 21 23 31 29
196 201 206 210 205 202 201 196 201 204 242 245 238 240 231 240 281 304 296 271 297 298 282 235 279 263 262 252 249 252 258 4 41 37 289 16 353 346 343 357 31 23 10 12 16 13 14 12 13 10 21 28 41 46
207 216 225 222 216 211 208 207 216 215 241 232 235 260 278 306 296 304 334 324 327 333 332 290 242 233 242 221 225 337 358 6 344 228 302 353 340 344 347 357 29 15 11 21 20 17 20 16 24 22 13 33 46 52
191 169 201 195 194 194 196 193 222 222 232 229 237 244 258 280 295 302 315 324 311 344 2 353 277 226 293 261 239 88 142 230 267 4 345 317 343 345 350 2 9 11 4 15 27 35 31 27 29 32 25 33 50 58
167 207 185 171 180 183 196 201 243 237 237 240 257 264 273 278 284 289 293 301 306 308 281 255 283 269 258 294 305 324 350 6 13 354 351 330 351 349 352 4 8 355 0 8 23 31 38 43 38 40 39 21 54 59
187 206 195 182 177 198 216 207 212 258 241 251 263 270 273 275 276 277 277 279 280 279 272 278 249 242 248 271 13 333 329 331 330 331 357 334 339 351 1 6 337 349 354 328 10 30 42 48 52 42 50 46 50 66
185 189 218 202 190 203 239 240 211 244 259 267 276 278 272 270 275 271 273 272 269 272 245 232 253 260 270 281 282 279 287 296 308 322 328 336 331 343 345 347 338 338 352 316 29 65 31 38 60 58 55 55 44 55
195 206 177 187 204 220 258 265 238 245 266 276 275 279 282 279 269 263 254 261 258 248 245 256 266 265 258 261 269 268 267 281 284 290 297 289 302 314 320 323 326 333 358 3 199 107 42 48 47 71 65 64 51 49
192 191 196 199 213 232 251 236 238 256 276 273 284 275 273 271 273 270 271 257 252 253 244 247 249 253 256 253 251 255 255 257 262 274 290 284 298 298 299 308 301 320 343 348 128 94 55 47 51 61 79 77 76 63
183 185 201 198 219 238 253 229 242 235 240 256 281 301 272 272 279 286 265 252 262 265 260 255 255 256 257 257 258 252 250 250 250 260 273 290 286 284 274 282 278 271 300 340 138 65 64 53 50 43 55 66 70 76
187 197 223 219 210 253 244 225 228 237 261 258 260 261 266 268 275 269 268 272 272 273 267 257 245 242 242 238 238 244 242 247 248 252 257 256 268 269 265 262 248 250 269 287 135 69 65 73 59 54 82 63 63 74
207 227 203 235 233 228 251 247 230 232 239 251 261 264 264 269 274 275 271 264 273 295 281 298 281 179 121 190 196 233 241 243 260 235 250 243 250 257 269 261 219 225 231 256 175 142 128 114 77 91 149 142 112 77
223 209 200 213 218 222 219 257 258 255 261 270 239 246 265 260 256 268 272 287 217 159 9 27 0 340 290 267 261 261 258 260 260 270 257 228 237 238 247 241 252 239 202 192 207 177 170 164 138 107 108 97 130 164
233 240 212 224 247 256 261 258 266 279 284 288 284 289 299 243 250 231 89 64 72 344 274 313 303 302 295 285 270 259 269 222 239 259 243 228 224 235 247 227 239 236 222 222 211 199 197 183 180 171 145 97 75 25
234 255 250 255 241 248 259 247 233 243 253 260 356 301 277 262 311 349 325 288 305 298 290 290 287 279 273 266 259 264 225 224 257 239 229 230 242 232 222 207 203 195 223 222 188 203 184 169 162 166 156 138 76 54
233 234 251 263 270 248 230 228 234 224 229 206 210 240 252 261 279 289 293 298 298 300 294 288 273 258 257 239 211 197 224 265 226 202 222 222 203 219 227 201 190 165 172 181 188 136 156 157 166 158 111 101 162 145
253 250 258 241 236 252 246 240 270 272 266 254 254 261 269 279 297 312 311 332 336 334 346 89 112 144 161 171 180 179 175 233 205 201 211 225 214 156 178 186 179 172 187 187 159 180 187 185 164 136 132 135 124 112
257 219 258 252 264 266 271 276 280 284 280 265 255 248 262 284 321 19 19 39 56 60 62 64 101 152 194 202 190 155 137 137 168 203 208 214 201 176 179 212 205 217 193 183 166 177 173 169 191 189 175 151 149 103
206 200 209 228 260 292 303 287 301 308 310 308 322 147 41 2 8 26 43 55 65 75 70 76 84 87 131 150 154 147 117 131 140 106 165 195 183 122 137 101 137 152 139 121 119 127 157 118 148 166 157 150 110 107
203 202 206 252 261 243 231 213 260 264 266 59 51 39 43 33 19 10 32 50 55 57 63 73 82 86 103 110 111 120 121 120 119 118 106 130 140 162 140 114 128 128 122 135 151 142 145 143 145 148 161 169 174 187